www.pogodaiklimat.ru

АРХИВ ПОГОДЫ в Ростове-на-Дону

Время (UTC), дата Ветер
(напр.,м/с)
 
Видим.   Явления Облачность Т
(С)
Тd
(С)
f
(%)
Тe
(С)
Тes
(С)
Комфортность P
(гПа)
Po
(гПа)
Тmin
(С)
Tmax
(С)
R
(мм)
S
(см)
00 25.10 СВ 7-11
{12}
10 км 10/10
[Sc]
-2.6 -8.0 66 -10 -10 очень
холодно
1029.3 1019.7
03 25.10 СВ 7
{11}
10 км 6/0
[Ac trans]
-4.9 -8.1 78 -13 -13 очень
холодно
1030.3 1020.6 -4.9
06 25.10 СВ 7
{11}
10 км 8/0
[Ac trans Ci fib]
-2.9 -8.1 67 -10 -10 очень
холодно
1032.6 1022.9 -5.4
09 25.10 В 8-11
{11}
10 км 3/0
[Ac trans]
+0.1 -8.3 53 -7 -6 очень
холодно
1033.0 1023.4
12 25.10 СВ 6-10
{11}
10 км 1/0
[Ac trans]
+2.0 -9.4 43 -3 -2 очень
холодно
1033.1 1023.6
15 25.10 СВ 5
{10}
10 км 1/0
[Ac trans]
-1.5 -9.6 54 -7 -7 очень
холодно
1034.1 1024.5 +2.4
18 25.10 В 7
{10}
10 км ясно -2.9 -10.2 57 -10 -10 очень
холодно
1035.2 1025.5
21 25.10 В 8-10
{10}
10 км 1/0
[Ci fib]
-5.1 -9.7 70 -14 -14 очень
холодно
1036.7 1026.9
00 26.10 СВ 7-10
{10}
10 км ясно -6.5 -10.9 71 -15 -15 очень
холодно
1036.7 1026.9
03 26.10 СВ 7-10
{11}
10 км ясно -6.8 -11.3 70 -15 -15 очень
холодно
1037.6 1027.7 -6.9
06 26.10 В 8-11
{11}
10 км ясно -4.7 -9.6 69 -13 -13 очень
холодно
1038.2 1028.4 -7.4
09 26.10 В 8-12
{14}
10 км ясно -0.6 -8.6 55 -8 -7 очень
холодно
1038.0 1028.4
12 26.10 В 8-12
{14}
10 км ясно +1.4 -8.5 48 -5 -5 очень
холодно
1037.2 1027.6
15 26.10 В 8-12
{12}
10 км 1/0
[Ac trans]
-1.4 -8.3 59 -9 -9 очень
холодно
1037.9 1028.2 +1.7
18 26.10 В 7 10 км ясно -3.2 -8.2 68 -11 -11 очень
холодно
1038.4 1028.7
21 26.10 В 6 10 км ясно -5.0 -8.6 76 -13 -13 очень
холодно
1038.6 1028.8
00 27.10 В 7 10 км ясно -5.2 -8.8 76 -13 -13 очень
холодно
1037.8 1028.0
03 27.10 В 7-10
{12}
10 км ясно -6.1 -8.3 84 -15 -15 очень
холодно
1037.9 1028.1 -6.2
06 27.10 В 10-13
{12}
10 км ясно -2.9 -8.0 68 -12 -12 очень
холодно
1038.0 1028.3
09 27.10 В 10-13
{14}
10 км ясно +2.7 -5.8 53 -4 -4 очень
холодно
1036.8 1027.3
12 27.10 В 9-13
{14}
10 км ясно +5.3 -3.8 52 -0 0 очень
холодно
1035.9 1026.5
15 27.10 В 7-10
{13}
10 км 6/4 600 м
[Sc Ac trans]
+2.4 -5.4 56 -3 -3 очень
холодно
1036.1 1026.6 +5.7
18 27.10 В 7-10
{13}
10 км 8/5 840 м
[Sc Ac trans]
+1.6 -5.2 61 -5 -5 очень
холодно
1035.7 1026.2
21 27.10 В 7-10
{10}
10 км ясно -1.4 -6.0 71 -9 -9 очень
холодно
1035.3 1025.6
00 28.10 В 7
{10}
10 км ясно -2.2 -6.5 72 -10 -10 очень
холодно
1034.6 1024.9
03 28.10 В 8 10 км ясно -2.3 -5.3 80 -10 -10 очень
холодно
1034.4 1024.7 -2.5
06 28.10 В 8-11
{11}
10 км ясно -0.1 -3.8 76 -7 -7 очень
холодно
1034.9 1025.3 -2.7
09 28.10 В 9-12
{12}
10 км ясно +6.4 -1.4 57 +1 +2 прохладно 1033.8 1024.5
12 28.10 В 9-12
{12}
10 км ясно +8.4 -1.3 50 +4 +4 прохладно 1032.4 1023.1
15 28.10 В 6
{12}
10 км ясно +5.0 -2.3 59 0 0 холодно 1032.3 1022.9 +8.9
18 28.10 В 6
{12}
10 км ясно +2.5 -3.6 64 -3 -3 холодно 1032.4 1022.9
21 28.10 В 6 10 км ясно +2.1 -1.0 80 -4 -4 холодно 1031.7 1022.2
00 29.10 В 5 10 км ясно +0.6 -0.7 91 -5 -5 холодно 1030.9 1021.4
03 29.10 В 6 10 км ясно +0.3 -0.8 92 -6 -6 очень
холодно
1030.7 1021.2 +0.2
06 29.10 В 7-10
{10}
10 км ясно +3.2 +0.9 85 -3 -3 холодно 1030.7 1021.3 -0.2
09 29.10 В 7-10
{11}
10 км 4/0
[Ci fib]
+8.5 +2.4 65 +5 +6 по сезону 1029.6 1020.4
12 29.10 В 8-11
{12}
10 км 4/0
[Ci fib]
+11.1 +1.8 53 +8 +8 по сезону 1028.0 1018.9
15 29.10 В 5
{11}
10 км 1/0
[Ci fib]
+7.6 +2.3 69 +4 +4 по сезону 1027.8 1018.6 +11.4
18 29.10 В 5
{11}
10 км ясно +5.6 +2.3 79 +1 +1 прохладно 1027.6 1018.3
21 29.10 В 5 10 км ясно +4.0 +1.8 86 -1 -1 прохладно 1027.3 1017.9
00 30.10 В 6
{10}
10 км ясно +3.7 +1.8 87 -2 -2 прохладно 1026.4 1017.0
03 30.10 В 6 10 км ясно +2.6 +1.2 90 -3 -3 холодно 1025.8 1016.4 +2.6
06 30.10 В 7 10 км 1/0
[Ac trans]
+5.1 +2.4 83 -0 -0 по сезону 1025.3 1016.0 +2.3
09 30.10 В 10-13
{13}
10 км 4/4 300 м
[St]
+11.3 +4.6 63 +8 +8 тепло 1023.4 1014.3
12 30.10 В 9-13
{14}
10 км 3/3 600 м
[Sc]
+13.1 +4.2 55 +10 +10 тепло 1021.6 1012.6
15 30.10 В 6-10
{13}
10 км 5/0
[Ac trans]
+9.8 +2.7 61 +7 +7 по сезону 1021.8 1012.7 +13.5
18 30.10 В 6
{13}
10 км 4/0
[Ac trans]
+8.1 +1.9 65 +4 +4 по сезону 1021.5 1012.3
21 30.10 В 7-10
{11}
10 км 8/3 1000 м
[Sc Ac trans]
+6.6 +0.7 66 +2 +2 по сезону 1020.4 1011.2
00 31.10 В 6
{11}
10 км 6/0
[Ac trans]
+4.6 +1.1 78 -1 -1 прохладно 1019.8 1010.5
03 31.10 В 6
{11}
10 км 9/6 330 м
[St Ac trans]
+6.0 +3.1 82 +1 +1 по сезону 1019.1 1009.9 +4.4
06 31.10 В 6
{11}
10 км 10/10 300 м
[St]
+6.8 +4.4 85 +2 +2 по сезону 1018.9 1009.7
09 31.10 В 6
{10}
10 км 10/8 400 м
[Sc Ac und]
+9.1 +5.7 79 +5 +6 по сезону 1018.0 1008.9
12 31.10 В 7
{10}
10 км {дождь} 9/6 600 м
[Sc Ac trans]
+10.5 +5.8 73 +7 +7 по сезону 1016.7 1007.7
15 31.10 В 6
{10}
10 км 10/6 570 м
[Sc Ac und]
+9.3 +5.8 79 +6 +6 по сезону 1017.1 1008.0 +10.8 0.0
18 31.10 В 6
{10}
10 км 10/8 660 м
[Sc Ac und]
+9.0 +3.1 67 +5 +5 по сезону 1016.8 1007.7
21 31.10 СВ 4 10 км 10/10 840 м
[Sc]
+8.2 +3.0 70 +5 +5 по сезону 1015.6 1006.5

 

Обсудить погоду в Ростове-на-Дону на МЕТЕОФОРУМЕ

 

Местоположение метеостанции Ростов-на-Дону (Ростовская область, Россия): широта 47.27 долгота 39.82 высота над уровнем моря 75 м.

В архиве по умолчанию представлена погода в Ростове-на-Дону за последнюю неделю. Архивные данные за месяц целиком и за предыдущие месяцы, начиная с января 2011 года, Вы можете получить, выбрав интересующий диапазон дат из раскрывающегося списка и нажав кнопку "Ввод!".

Внимание! Время в таблицах - всемирное. Для получения местного времени необходимо прибавить поправку, которая в Ростове-на-Дону равна 3 ч.

Ветер - указаны скорость ветра в м/с - средняя за 10 мин, порывы в срок и между сроками (в фигурных скобках) и направление, откуда дует ветер: С - северный, СВ - северо-восточный, В - восточный, ЮВ - юго-восточный, Ю - южный, ЮЗ - юго-западный, З - западный, СЗ - северо-западный.
Видимость - горизонтальная дальность видимости в метрах или километрах. При видимости от 1 до 10 км при отсутствии осадков обычно наблюдается дымка, при ухудшении видимости до 1 км и менее - туман. В сухую погоду видимость может ухудшаться дымом, пылью или мглою.
Явления - указаны атсосферные явления, наблюдавшиеся в срок или в последний час перед сроком; фигурными скобками обозначены явления, наблюдавшиеся между сроками (за 1-3 часа до срока); квадратными скобками обозначены град или гололедные отложения с указанием их диаметра в мм.
Облачность - указаны через наклонную черту общая и нижняя облачность в баллах и высота нижней границы облаков в метрах; квадратными скобками обозначены формы облаков: Ci - перистые, Cs - перисто-слоистые, Cc - перисто-кучевые, Ac - высококучевые, As - высокослоистые, Sc - слоисто-кучевые, Ns - слоисто-дождевые, Cu - кучевые, Cb - кучево-дождевые. Подробнее классификацию облаков см. в Атласе облаков (PDF).
T - Температура воздуха - температура, измеренная на высоте 2 м над землей.
Td - Температура точки росы - температура, при понижении до которой содержащийся в воздухе водяной пар достигнет насыщения.
f - Относительная влажность воздуха - влажноcть воздуха, измеренная на высоте 2 м над землей.
Te - Эффективная температура - температура, которую ощущает одетый по сезону человек в тени. Характеристика душности погоды. При расчете учитывается влияние влажности воздуха и скорости ветра на теплоощущения человека.
Tes - Эффективная температура на солнце - температура, которую ощущает человек, с поправкой на солнечный нагрев. Характеристика знойности погоды. Зависит от высоты солнца над горизонтом, облачности и скорости ветра. Ночью, в пасмурную погоду, а также при ветре 12 м/с и более поправка равна нулю.
P - Атмосферное давление - приведенное к уровню моря атмосферное давление.
Po - Атмосферное давление - измеренное на уровне метеостанции атмосферное давление.
Tmin - Минимальная температура - минимум температуры воздуха на высоте 2 м над землей.
Tmax - Максимальная температура - максимум температуры воздуха на высоте 2 м над землей.
R - Количество осадков - Количество выпавших осадков, мм.
S - Снежный покров - Высота снежного покрова, см.